Palmer, AK

6:22 AM AKDT on April 30, 2017 (GMT -0800)
Palmer Municipal

Weather History for PAAQ - April, 2014

Change the Weather History Date:

Friday, April 4, 2014

  Actual Average Record
Temperature  
Mean Temperature 36 °F -  
Max Temperature 43 °F 41 °F 59 °F (1958)
Min Temperature 28 °F 25 °F 7 °F (1952)
Degree Days  
Heating Degree Days 30    
Moisture  
Dew Point 17 °F    
Average Humidity 47    
Maximum Humidity 61    
Minimum Humidity 33    
Precipitation  
Precipitation 0.00 in - - ()
Sea Level Pressure  
Sea Level Pressure 29.51 in    
Wind  
Wind Speed 9 mph (NE)    
Max Wind Speed 16 mph    
Max Gust Speed 22 mph    
Visibility 10 miles    
Events      
Averages and records for this station are not official NWS values.
T = Trace of Precipitation, MM = Missing Value Source: NWS Daily Summary

Daily Weather History Graph

Daily Weather History Graph

Search for Another Location

Airport or City:

Trip Planner

Search our weather history database for the weather conditions in past years. The results will help you decide how hot, cold, wet, or windy it might be!

Date:

Astronomy

Apr. 04, 2014 Rise Set
Actual Time 7:08 AM AKDT 8:51 PM AKDT
Civil Twilight 6:22 AM AKDT 9:37 PM AKDT
Nautical Twilight 5:24 AM AKDT 10:37 PM AKDT
Astronomical Twilight 4:10 AM AKDT 11:52 PM AKDT
Moon 9:28 AM AKDT (4/4) 2:22 AM AKDT (4/4)
Length of Visible Light 15h 14m
Length of Day
13h 42m
Waxing Crescent, 27% of the Moon is Illuminated
Apr 4
Waxing Crescent
Apr 7
First Quarter
Apr 14
Full
Apr 21
Last Quarter
Apr 28
New

Hourly Weather History & Observations

Time (AKDT) Temp. Windchill Dew Point Humidity Pressure Visibility Wind Dir Wind Speed Gust Speed Precip Events Conditions
12:53 AM 30.9 °F 24.3 °F 18.0 °F 59% 29.59 in 10.0 mi NNE 6.9 mph - N/A   Scattered Clouds
1:53 AM 30.0 °F 23.2 °F 18.0 °F 61% 29.58 in 10.0 mi North 6.9 mph - N/A   Mostly Cloudy
2:53 AM 30.0 °F 22.4 °F 15.1 °F 54% 29.57 in 10.0 mi North 8.1 mph - N/A   Mostly Cloudy
3:53 AM 28.9 °F 21.1 °F 14.0 °F 54% 29.56 in 10.0 mi North 8.1 mph - N/A   Partly Cloudy
4:53 AM 28.9 °F 19.8 °F 12.9 °F 51% 29.55 in 10.0 mi North 10.4 mph - N/A   Scattered Clouds
5:53 AM 28.9 °F 20.4 °F 12.9 °F 51% 29.54 in 10.0 mi North 9.2 mph - N/A   Overcast
6:53 AM 28.9 °F 18.6 °F 12.0 °F 49% 29.54 in 10.0 mi North 12.7 mph - N/A   Mostly Cloudy
7:53 AM 28.0 °F 18.1 °F 12.0 °F 51% 29.54 in 10.0 mi North 11.5 mph - N/A   Overcast
8:53 AM 30.0 °F 21.1 °F 12.0 °F 47% 29.54 in 10.0 mi North 10.4 mph - N/A   Overcast
9:53 AM 32.0 °F 23.6 °F 12.0 °F 44% 29.54 in 10.0 mi North 10.4 mph - N/A   Overcast
10:53 AM 36.0 °F 29.6 °F 14.0 °F 41% 29.53 in 10.0 mi North 8.1 mph - N/A   Mostly Cloudy
11:53 AM 39.9 °F 37.8 °F 12.9 °F 33% 29.52 in 10.0 mi Variable 3.5 mph - N/A   Overcast
12:53 PM 39.9 °F 31.8 °F 18.0 °F 41% 29.51 in 10.0 mi SE 15.0 mph 21.9 mph N/A   Overcast
1:53 PM 39.9 °F 31.4 °F 18.0 °F 41% 29.51 in 10.0 mi SE 16.1 mph - N/A   Overcast
2:53 PM 42.1 °F 34.2 °F 19.0 °F 40% 29.50 in 10.0 mi SE 16.1 mph - N/A   Overcast
3:53 PM 42.1 °F 34.5 °F 19.0 °F 40% 29.50 in 10.0 mi SE 15.0 mph - N/A   Overcast
4:53 PM 42.1 °F 35.2 °F 19.9 °F 41% 29.48 in 10.0 mi SE 12.7 mph - N/A   Overcast
5:53 PM 43.0 °F 36.0 °F 21.0 °F 42% 29.47 in 10.0 mi SE 13.8 mph - N/A   Overcast
6:53 PM 41.0 °F 33.9 °F 21.0 °F 45% 29.46 in 10.0 mi SE 12.7 mph - N/A   Overcast
7:53 PM 39.9 °F 32.5 °F 21.0 °F 47% 29.46 in 10.0 mi ESE 12.7 mph - N/A   Overcast
8:53 PM 39.0 °F 36.8 °F 21.0 °F 49% 29.46 in 10.0 mi East 3.5 mph - N/A   Overcast
9:53 PM 37.9 °F 34.4 °F 21.9 °F 53% 29.46 in 10.0 mi ENE 4.6 mph - N/A   Clear
10:53 PM 35.1 °F 27.9 °F 17.1 °F 48% 29.46 in 10.0 mi North 9.2 mph - N/A   Clear
11:53 PM 35.1 °F 28.6 °F 18.0 °F 50% 29.46 in 10.0 mi North 8.1 mph - N/A   Overcast